Flag for Sao Tome and Principe Weather past 2 weeks in São Tomé, Sao Tome and Principe

Now
72 °F

Mild.


Feels Like: 76 °F
Forecast: 72 / 76 °F
Wind: 5 mph from South

Location: Neuchatel

Current Time: Jul 24, 2014 at 11:19:55 AM

Latest Report: Jul 24, 2014 at 10:00 AM


Visibility: N/A

Pressure: 29.86 "Hg

Humidity: 62%

Dew point: 59 °F

Location of São ToméLocation

Historic Weather in São Tomé — Graph

°F

São Tomé temperature yesterday

Maximum temperature yesterday: 79 °F (at 3:00 PM)
Minimum temperature yesterday: 62 °F (at 2:00 AM)
Average temperature yesterday: 71 °F

Past Weeks' High & Low Weather Summary

 TemperatureHumidityPressure
High87 °F (Jul 18, 4:00 PM)98% (Jul 22, 11:00 PM)30.19 "Hg (Jul 22, 11:00 PM)
Low51 °F (Jul 10, 1:00 AM)25% (Jul 17, 4:00 PM)29.80 "Hg (Jul 19, 5:00 PM)
Average66 °F73%29.97 "Hg
* Reported Jul 9 1:00 PM — Jul 24 10:00 AM, São Tomé, Weather by CustomWeather, © 2014

Note: Actual official high and low records may vary slightly from our data, if they occured in-between our weather recording intervals... More about our weather records

Advertising

São Tomé weather history for previous 24 hours

 ConditionsComfort  
Time TempWeatherWind HumidityBarometerVisibility
10:00 AM
Jul 24
72 °FMild.5 mph62%29.86 "HgN/A
9:00 AM71 °FMild.3 mph65%29.86 "HgN/A
8:00 AM69 °FMild.3 mph70%29.86 "HgN/A
7:00 AM67 °FMild.2 mph76%29.86 "HgN/A
6:00 AM66 °FMild.1 mph78%29.86 "HgN/A
5:00 AM62 °FMild.1 mph83%29.86 "HgN/A
4:00 AM63 °FMild.1 mph81%29.85 "HgN/A
3:00 AM64 °FMild.1 mph81%29.84 "HgN/A
2:00 AM65 °FMild.2 mph74%29.84 "HgN/A
1:00 AM68 °FMild.3 mph75%29.83 "HgN/A
12:00 AM71 °FMild.5 mph57%29.83 "HgN/A
11:00 PM
Jul 23
72 °FMild.10 mph55%29.83 "HgN/A
10:00 PM72 °FMild.13 mph54%29.83 "HgN/A
9:00 PM72 °FMild.10 mph55%29.84 "HgN/A
8:00 PM73 °FMild.12 mph56%29.84 "HgN/A
7:00 PM73 °FMild.9 mph57%29.83 "HgN/A
6:00 PM74 °FMild.8 mph57%29.83 "HgN/A
5:00 PM76 °FMild.12 mph54%29.82 "HgN/A
4:00 PM76 °FMild.12 mph53%29.83 "HgN/A
3:00 PM79 °FWarm.16 mph48%29.82 "HgN/A
2:00 PM78 °FWarm.16 mph49%29.83 "HgN/A
1:00 PM78 °FWarm.18 mph47%29.84 "HgN/A
Weather by CustomWeather, © 2014

See weather overviewHow to use our weather pages